RYR946 EPKK-LOWW

Flight info

Callsign RYR946
Flight time 0h 41m
Altitude 22000
Route BABKO DCT VADEX DCT BABNI DCT TUTPI P182 REKLU REKLU3W
Aircraft A320/M-SDE3FGHIRWY/LB1

Departure

Time 2026-05-05 14:25
Airport Kraków John Paul II International Airport (EPKK)

Arrival

Time 2026-05-05 15:06
Airport Vienna International Airport (LOWW)
Time Latitude Longitude Altitude Speed Heading
2026-05-05 14:03 50.07582 19.80097 792 ft 0 kts 348°
2026-05-05 14:22 50.07590 19.80095 790 ft 3 kts 348°
2026-05-05 14:22 50.07622 19.80110 790 ft 6 kts 39°
2026-05-05 14:22 50.07637 19.80177 790 ft 8 kts 79°
2026-05-05 14:22 50.07648 19.80262 790 ft 8 kts 76°
2026-05-05 14:23 50.07660 19.80335 790 ft 7 kts 72°
2026-05-05 14:23 50.07688 19.80380 790 ft 5 kts 22°
2026-05-05 14:23 50.07737 19.80371 790 ft 9 kts 347°
2026-05-05 14:23 50.07794 19.80352 790 ft 8 kts 348°
2026-05-05 14:24 50.07846 19.80335 790 ft 7 kts 348°
2026-05-05 14:24 50.07908 19.80315 790 ft 10 kts 348°
2026-05-05 14:24 50.07977 19.80290 789 ft 10 kts 343°
2026-05-05 14:24 50.08013 19.80214 790 ft 10 kts 269°
2026-05-05 14:25 50.07964 19.79850 789 ft 71 kts 257°
2026-05-05 14:25 50.07811 19.78741 792 ft 136 kts 257°
2026-05-05 14:25 50.07583 19.77113 1127 ft 157 kts 253°
2026-05-05 14:25 50.07392 19.75467 1981 ft 152 kts 255°
2026-05-05 14:26 50.07178 19.73878 2651 ft 153 kts 252°
2026-05-05 14:26 50.06919 19.72143 3039 ft 176 kts 252°
2026-05-05 14:26 50.06625 19.70165 3372 ft 200 kts 253°
2026-05-05 14:26 50.06296 19.67917 3819 ft 224 kts 253°
2026-05-05 14:27 50.05796 19.65583 4607 ft 230 kts 233°
2026-05-05 14:27 50.04541 19.64088 5393 ft 240 kts 198°
2026-05-05 14:27 50.02824 19.63940 6118 ft 256 kts 175°
2026-05-05 14:27 50.01061 19.64533 7021 ft 262 kts 168°
2026-05-05 14:28 49.99291 19.65344 7898 ft 268 kts 167°
2026-05-05 14:28 49.97486 19.66184 8780 ft 274 kts 168°
2026-05-05 14:28 49.95631 19.66988 9685 ft 279 kts 169°
2026-05-05 14:28 49.93710 19.67752 10271 ft 295 kts 170°
2026-05-05 14:29 49.91633 19.68514 10598 ft 317 kts 170°
2026-05-05 14:29 49.89424 19.69051 11226 ft 324 kts 181°
2026-05-05 14:29 49.87183 19.68710 12024 ft 323 kts 196°
2026-05-05 14:29 49.85093 19.67499 12950 ft 321 kts 209°
2026-05-05 14:30 49.83126 19.65808 13708 ft 325 kts 210°
2026-05-05 14:30 49.81139 19.64080 14397 ft 330 kts 210°
2026-05-05 14:30 49.79151 19.62356 15092 ft 334 kts 210°
2026-05-05 14:30 49.77095 19.60579 15833 ft 337 kts 209°
2026-05-05 14:31 49.75041 19.58811 16604 ft 338 kts 208°
2026-05-05 14:31 49.72973 19.57038 17281 ft 343 kts 208°
2026-05-05 14:31 49.70899 19.55262 17920 ft 347 kts 208°
2026-05-05 14:31 49.68762 19.53436 18451 ft 354 kts 208°
2026-05-05 14:32 49.66579 19.51572 19106 ft 356 kts 208°
2026-05-05 14:32 49.64404 19.49713 19741 ft 358 kts 208°
2026-05-05 14:32 49.62260 19.47843 20355 ft 361 kts 212°
2026-05-05 14:32 49.60235 19.45417 20905 ft 367 kts 223°
2026-05-05 14:33 49.58484 19.42592 21391 ft 373 kts 226°
2026-05-05 14:33 49.56709 19.39669 21781 ft 373 kts 226°
2026-05-05 14:33 49.54950 19.36774 21854 ft 368 kts 226°
2026-05-05 14:33 49.53192 19.33896 21856 ft 369 kts 226°
2026-05-05 14:34 49.51425 19.31020 21865 ft 371 kts 226°
2026-05-05 14:34 49.49651 19.28140 21860 ft 370 kts 226°
2026-05-05 14:34 49.47888 19.25280 21863 ft 366 kts 226°
2026-05-05 14:34 49.46130 19.22427 21862 ft 368 kts 226°
2026-05-05 14:35 49.44360 19.19556 21870 ft 372 kts 226°
2026-05-05 14:35 49.42587 19.16679 21869 ft 371 kts 226°
2026-05-05 14:35 49.40817 19.13811 21868 ft 369 kts 226°
2026-05-05 14:35 49.39045 19.10945 21889 ft 370 kts 226°
2026-05-05 14:36 49.37272 19.08082 21878 ft 371 kts 226°
2026-05-05 14:36 49.35492 19.05208 21880 ft 371 kts 226°
2026-05-05 14:36 49.33713 19.02344 21874 ft 368 kts 226°
2026-05-05 14:36 49.31947 18.99506 21867 ft 369 kts 226°
2026-05-05 14:37 49.30172 18.96655 21866 ft 371 kts 226°
2026-05-05 14:37 49.28383 18.93782 21869 ft 372 kts 226°
2026-05-05 14:37 49.26597 18.90913 21870 ft 371 kts 226°
2026-05-05 14:37 49.24881 18.87986 21867 ft 370 kts 232°
2026-05-05 14:38 49.23406 18.84755 21868 ft 372 kts 235°
2026-05-05 14:38 49.21936 18.81472 21876 ft 373 kts 235°
2026-05-05 14:38 49.20472 18.78199 21873 ft 372 kts 235°
2026-05-05 14:38 49.19012 18.74948 21871 ft 370 kts 235°
2026-05-05 14:39 49.17555 18.71712 21855 ft 370 kts 235°
2026-05-05 14:39 49.16086 18.68456 21852 ft 372 kts 235°
2026-05-05 14:39 49.14620 18.65211 21858 ft 372 kts 235°
2026-05-05 14:39 49.13196 18.61917 21868 ft 372 kts 241°
2026-05-05 14:40 49.12155 18.58302 21867 ft 372 kts 246°
2026-05-05 14:40 49.11163 18.54643 21863 ft 373 kts 246°
2026-05-05 14:40 49.10173 18.50988 21861 ft 373 kts 246°
2026-05-05 14:40 49.09179 18.47327 21869 ft 373 kts 246°
2026-05-05 14:41 49.08200 18.43709 21872 ft 373 kts 246°
2026-05-05 14:41 49.07211 18.40044 21858 ft 374 kts 246°
2026-05-05 14:41 49.06218 18.36376 21868 ft 374 kts 247°
2026-05-05 14:41 49.05222 18.32711 21876 ft 374 kts 247°
2026-05-05 14:42 49.04227 18.29053 21879 ft 373 kts 247°
2026-05-05 14:42 49.03230 18.25397 21864 ft 374 kts 247°
2026-05-05 14:42 49.02233 18.21746 21862 ft 374 kts 247°
2026-05-05 14:42 49.01231 18.18090 21868 ft 373 kts 246°
2026-05-05 14:43 49.00234 18.14455 21852 ft 372 kts 246°
2026-05-05 14:43 48.99233 18.10818 21854 ft 373 kts 246°
2026-05-05 14:43 48.98228 18.07173 21852 ft 373 kts 246°
2026-05-05 14:43 48.97224 18.03540 21854 ft 373 kts 246°
2026-05-05 14:44 48.96223 17.99924 21839 ft 370 kts 247°
2026-05-05 14:44 48.95220 17.96301 21839 ft 372 kts 247°
2026-05-05 14:44 48.94209 17.92661 21841 ft 375 kts 246°
2026-05-05 14:44 48.93199 17.89017 21840 ft 373 kts 246°
2026-05-05 14:45 48.92196 17.85393 21841 ft 371 kts 246°
2026-05-05 14:45 48.91193 17.81778 21838 ft 371 kts 246°
2026-05-05 14:45 48.90190 17.78162 21828 ft 374 kts 247°
2026-05-05 14:45 48.89186 17.74557 21829 ft 374 kts 247°
2026-05-05 14:46 48.88159 17.70883 21829 ft 372 kts 246°
2026-05-05 14:46 48.87145 17.67260 21831 ft 373 kts 246°
2026-05-05 14:46 48.86137 17.63674 21830 ft 375 kts 246°
2026-05-05 14:46 48.85109 17.60025 21830 ft 375 kts 246°
2026-05-05 14:47 48.84091 17.56406 21641 ft 368 kts 246°
2026-05-05 14:47 48.83101 17.52888 21352 ft 359 kts 246°
2026-05-05 14:47 48.82124 17.49421 20921 ft 354 kts 246°
2026-05-05 14:47 48.81156 17.45998 20469 ft 351 kts 246°
2026-05-05 14:48 48.80197 17.42616 20011 ft 348 kts 246°
2026-05-05 14:48 48.79244 17.39254 19545 ft 346 kts 246°
2026-05-05 14:48 48.78299 17.35914 19090 ft 343 kts 246°
2026-05-05 14:48 48.77358 17.32594 18616 ft 342 kts 246°
2026-05-05 14:49 48.76421 17.29298 18166 ft 340 kts 246°
2026-05-05 14:49 48.75483 17.26015 17670 ft 338 kts 246°
2026-05-05 14:49 48.74556 17.22764 17216 ft 334 kts 246°
2026-05-05 14:49 48.73639 17.19546 16778 ft 331 kts 246°
2026-05-05 14:50 48.72728 17.16354 16340 ft 329 kts 245°
2026-05-05 14:50 48.71825 17.13193 15904 ft 326 kts 245°
2026-05-05 14:50 48.70926 17.10050 15484 ft 324 kts 244°
2026-05-05 14:50 48.70030 17.06933 15058 ft 322 kts 245°
2026-05-05 14:51 48.69150 17.03879 14644 ft 320 kts 245°
2026-05-05 14:51 48.68253 17.00767 14218 ft 318 kts 245°
2026-05-05 14:51 48.67383 16.97745 13808 ft 317 kts 244°
2026-05-05 14:51 48.66503 16.94697 13351 ft 315 kts 244°
2026-05-05 14:52 48.65631 16.91679 12920 ft 312 kts 244°
2026-05-05 14:52 48.64765 16.88683 12487 ft 309 kts 244°
2026-05-05 14:52 48.63906 16.85714 12064 ft 307 kts 244°
2026-05-05 14:52 48.63052 16.82767 11642 ft 305 kts 244°
2026-05-05 14:53 48.62206 16.79850 11219 ft 302 kts 244°
2026-05-05 14:53 48.61365 16.76950 10785 ft 300 kts 244°
2026-05-05 14:53 48.60797 16.74999 10502 ft 299 kts 244°
2026-05-05 14:53 48.59696 16.71219 10058 ft 293 kts 244°
2026-05-05 14:54 48.59148 16.69343 9975 ft 285 kts 244°
2026-05-05 14:54 48.58368 16.66675 9848 ft 278 kts 244°
2026-05-05 14:54 48.57596 16.64038 9728 ft 274 kts 244°
2026-05-05 14:54 48.56828 16.61426 9554 ft 271 kts 243°
2026-05-05 14:55 48.56069 16.58844 9206 ft 268 kts 244°
2026-05-05 14:55 48.55310 16.56261 8839 ft 269 kts 243°
2026-05-05 14:55 48.54556 16.53696 8458 ft 268 kts 244°
2026-05-05 14:55 48.53962 16.51017 8063 ft 270 kts 251°
2026-05-05 14:56 48.53455 16.48298 7647 ft 268 kts 250°
2026-05-05 14:56 48.52936 16.45605 7231 ft 265 kts 246°
2026-05-05 14:56 48.51948 16.43350 6838 ft 256 kts 218°
2026-05-05 14:56 48.50392 16.42155 6448 ft 253 kts 192°
2026-05-05 14:57 48.48641 16.42253 6048 ft 256 kts 168°
2026-05-05 14:57 48.46927 16.42983 5639 ft 256 kts 167°
2026-05-05 14:57 48.45223 16.43719 5267 ft 253 kts 166°
2026-05-05 14:57 48.43549 16.44442 5005 ft 244 kts 166°
2026-05-05 14:58 48.41981 16.45071 4998 ft 223 kts 167°
2026-05-05 14:58 48.40542 16.45661 5005 ft 206 kts 167°
2026-05-05 14:58 48.39208 16.46227 4995 ft 192 kts 167°
2026-05-05 14:58 48.37984 16.46751 5024 ft 172 kts 168°
2026-05-05 14:59 48.36869 16.47228 5008 ft 164 kts 168°
2026-05-05 14:59 48.35782 16.47691 4993 ft 161 kts 168°
2026-05-05 14:59 48.34717 16.48144 4977 ft 162 kts 168°
2026-05-05 14:59 48.33638 16.48605 4861 ft 161 kts 168°
2026-05-05 15:00 48.32576 16.49059 4668 ft 152 kts 168°
2026-05-05 15:00 48.31920 16.49341 4561 ft 142 kts 168°
2026-05-05 15:00 48.30673 16.49872 4308 ft 140 kts 168°
2026-05-05 15:00 48.29740 16.50269 4133 ft 139 kts 168°
2026-05-05 15:01 48.28811 16.50665 3952 ft 138 kts 168°
2026-05-05 15:01 48.27898 16.51054 3749 ft 133 kts 168°
2026-05-05 15:01 48.27044 16.51419 3574 ft 125 kts 169°
2026-05-05 15:01 48.26210 16.51774 3413 ft 124 kts 168°
2026-05-05 15:02 48.25384 16.52125 3257 ft 123 kts 168°
2026-05-05 15:02 48.24565 16.52473 3098 ft 122 kts 168°
2026-05-05 15:02 48.23746 16.52821 2940 ft 122 kts 169°
2026-05-05 15:02 48.22930 16.53168 2778 ft 121 kts 169°
2026-05-05 15:03 48.22118 16.53514 2621 ft 121 kts 169°
2026-05-05 15:03 48.21312 16.53856 2458 ft 120 kts 170°
2026-05-05 15:03 48.20518 16.54193 2307 ft 120 kts 169°
2026-05-05 15:03 48.19717 16.54533 2151 ft 120 kts 169°
2026-05-05 15:04 48.18917 16.54873 2003 ft 119 kts 170°
2026-05-05 15:04 48.18119 16.55212 1841 ft 119 kts 170°
2026-05-05 15:04 48.17324 16.55550 1685 ft 119 kts 169°
2026-05-05 15:04 48.16531 16.55886 1530 ft 119 kts 168°
2026-05-05 15:05 48.14901 16.56570 1192 ft 123 kts 169°
2026-05-05 15:05 48.14094 16.56914 1032 ft 120 kts 169°
2026-05-05 15:05 48.13298 16.57255 894 ft 117 kts 170°
2026-05-05 15:06 48.12514 16.57586 734 ft 117 kts 169°
2026-05-05 15:06 48.11729 16.57925 635 ft 117 kts 169°
2026-05-05 15:06 48.11027 16.58217 613 ft 84 kts 164°
2026-05-05 15:06 48.10621 16.58384 612 ft 44 kts 165°
2026-05-05 15:07 48.10380 16.58464 619 ft 28 kts 176°
2026-05-05 15:07 48.10212 16.58430 608 ft 20 kts 193°
2026-05-05 15:07 48.10139 16.58366 610 ft 10 kts 258°
2026-05-05 15:07 48.10196 16.58294 611 ft 11 kts 343°
2026-05-05 15:08 48.10268 16.58263 617 ft 11 kts 344°
2026-05-05 15:08 48.10361 16.58223 614 ft 17 kts 344°
2026-05-05 15:08 48.10485 16.58171 616 ft 19 kts 345°
2026-05-05 15:08 48.10605 16.58120 618 ft 17 kts 344°
2026-05-05 15:09 48.10724 16.58069 620 ft 20 kts 343°
2026-05-05 15:09 48.10876 16.58004 611 ft 23 kts 345°
2026-05-05 15:09 48.11026 16.57942 609 ft 20 kts 344°
2026-05-05 15:09 48.11122 16.57822 611 ft 18 kts 299°
2026-05-05 15:10 48.11182 16.57637 609 ft 21 kts 295°
2026-05-05 15:10 48.11252 16.57427 616 ft 24 kts 296°
2026-05-05 15:10 48.11328 16.57194 609 ft 26 kts 296°
2026-05-05 15:10 48.11411 16.56937 619 ft 28 kts 296°
2026-05-05 15:11 48.11495 16.56677 612 ft 28 kts 295°
2026-05-05 15:11 48.11582 16.56414 613 ft 28 kts 296°
2026-05-05 15:11 48.11667 16.56152 615 ft 27 kts 296°
2026-05-05 15:11 48.11752 16.55891 620 ft 28 kts 296°
2026-05-05 15:12 48.11831 16.55649 608 ft 22 kts 296°
2026-05-05 15:12 48.11888 16.55474 611 ft 13 kts 309°
2026-05-05 15:12 48.11968 16.55476 615 ft 12 kts 24°
2026-05-05 15:12 48.12049 16.55534 612 ft 13 kts 26°
2026-05-05 15:13 48.12101 16.55587 611 ft 8 kts 64°
2026-05-05 15:13 48.12094 16.55641 609 ft 3 kts 116°
2026-05-05 15:13 48.12086 16.55664 613 ft 2 kts 116°
2026-05-05 15:13 48.12086 16.55666 613 ft 0 kts 116°